Simultaneous Nadir Overpasses (SNOs) Predictions

Prediction of SNOs between NPP and TERRA Satellite Orbit:

Table of predicted SNOs for the next 14.0 days since TLE Epoch: 10/25/2014
Index Date (NPP) Time (NPP) Lat,Lon (NPP) SZA (NPP ) Date (TERRA) Time (TERRA) Lat,Lon (TERRA) SZA (TERRA ) Distance(km) Time Diff (sec)
1 10/25/2014 13:26:50 -69.29, 157.92 98.60 10/25/2014 13:27:20 -69.28, 157.99 98.61 3.20 30
2 10/25/2014 14:17:33 69.12, -34.54 81.25 10/25/2014 14:16:48 69.12, -34.57 81.24 1.49 45
3 10/28/2014 04:53:02 69.63, 105.91 82.63 10/28/2014 04:54:13 69.55, 106.61 82.58 28.78 71
4 10/28/2014 05:43:38 -69.22, -86.20 97.76 10/28/2014 05:43:47 -69.22, -86.19 97.76 0.16 9
5 10/28/2014 06:34:22 69.11, 81.27 82.15 10/28/2014 06:33:14 69.11, 81.31 82.14 1.55 68
6 10/30/2014 21:09:45 69.31,-137.84 83.21 10/30/2014 21:10:43 69.29,-137.85 83.19 2.49 58
7 10/30/2014 22:00:26 -69.16, 29.68 96.93 10/30/2014 22:00:13 -69.18, 29.65 96.92 2.10 13
8 10/30/2014 22:50:59 68.47,-162.08 82.41 10/30/2014 22:49:50 68.51,-163.56 82.41 60.58 69
9 11/02/2014 13:26:32 69.27, -21.99 84.02 11/02/2014 13:27:07 69.26, -21.99 84.02 0.76 35
10 11/02/2014 14:17:14 -69.17, 145.46 96.06 11/02/2014 14:16:37 -69.15, 145.51 96.08 2.57 37
11 11/05/2014 04:52:47 -69.91, -74.45 94.53 11/05/2014 04:53:56 -69.81, -72.99 94.60 56.89 69
12 11/05/2014 05:43:20 69.23, 93.85 84.82 11/05/2014 05:43:31 69.25, 93.90 84.84 2.56 11
13 11/05/2014 06:34:01 -69.08, -98.62
